Torna al catalogo

STARLINK-36082

AttivoComunicazioniVLEO
NORAD 66872·PAYLOAD·🇺🇸 United States

Lanciato Dec 2, 2025 da Cape Canaveral Space Force Station

Loading…

Prossimi Passaggi (prossime 24 ore)

TLE

AggiornatoSource: CelesTrak SupGP

Epoca: Sep 14, 2026, 20:53 UTC

1 66872C 25281AA  26257.87062500  .00011575  00000+0  41926-3 0  2577
2 66872  43.0033 355.1432 0001462 271.7519 228.5401 15.27571964    12

Traccia STARLINK-36082 in tempo reale con AllMySat

Download on the App Store